This demonstration page uses our WeatherBlox Daily Observations layout. Learn more.

Left ArrowRight Arrow

34.16533, -84.80231

Hourly Observations for May 30, 2017

Temp ( °F °C ) Dew Point ( °F °C ) Humidity (%) Winds ( mph kmh ) Pressure ( in mb ) Visibility ( mi km ) Precip ( " mm )
12:39 am 00:39 Cloudy 67 19.4 67 19.4 100 100 Calm 30.06 1018 10 16 0.00 0.00
12:53 am 00:53 Mostly Cloudy 66 18.9 66 18.9 100 100 Calm 30.06 1018 10 16 0.00 0.00
1:08 am 01:08 Mostly Cloudy with Light Rain 66 18.9 66 18.9 100 100 Calm 30.06 1018 10 16 0.00 0.03
1:53 am 01:53 Mostly Clear 66 18.9 66 18.9 100 100 Calm 30.06 1018 10 16 0.00 0.03
2:53 am 02:53 Mostly Cloudy 65 18.3 65 18.3 100 100 Calm 30.05 1018 8 13 0.00 0.00
3:53 am 03:53 Partly Cloudy 65 18.3 65 18.3 100 100 Calm 30.05 1018 10 16 0.00 0.00
4:53 am 04:53 Clear 65 18.3 65 18.3 100 100 Calm 30.05 1018 10 16 0.00 0.00
5:53 am 05:53 Clear 65 18.3 65 18.3 100 100 Calm 30.06 1018 10 16 0.00 0.00
6:53 am 06:53 Sunny 64 17.8 64 17.8 100 100 Calm 30.08 1019 10 16 0.00 0.00
7:53 am 07:53 Mostly Cloudy 66 18.9 66 18.9 100 100 Calm 30.10 1019 10 16 0.00 0.00
8:29 am 08:29 Cloudy 66 18.9 66 18.9 100 100 Calm 30.12 1020 10 16 0.00 0.00
8:34 am 08:34 Cloudy 67 19.4 67 19.4 100 100 ESE 3 6 30.12 1020 10 16 0.00 0.00
8:53 am 08:53 Cloudy with Light Rain 66 18.9 66 18.9 100 100 Calm 30.11 1020 5 8 0.01 0.25
9:01 am 09:01 Cloudy 67 19.4 67 19.4 100 100 Calm 30.12 1020 10 16 0.00 0.03
9:30 am 09:30 Cloudy 67 19.4 67 19.4 100 100 Calm 30.12 1020 10 16 0.00 0.03
9:53 am 09:53 Cloudy 68 20 68 20 100 100 Calm 30.12 1020 10 16 0.00 0.03
10:53 am 10:53 Cloudy 70 21.1 70 21.1 100 100 Calm 30.12 1020 9 14 0.00 0.00
11:16 am 11:16 Cloudy with Mist and Fog 71 21.7 69 20.6 94 94 Calm 30.12 1020 5 8 0.00 0.00
11:19 am 11:19 Cloudy with Heavy Rain 70 21.1 69 20.6 97 97 Calm 30.12 1020 2 3 0.04 1.02
11:37 am 11:37 Cloudy with Light Rain 69 20.6 69 20.6 100 100 Calm 30.12 1020 3 5 0.10 2.54
11:42 am 11:42 Cloudy with Nearby Thunderstorms 69 20.6 69 20.6 100 100 Calm 30.12 1020 3 4 0.11 2.79
11:47 am 11:47 Cloudy with Nearby Thunderstorms 70 21 70 21 100 100 Calm 30.12 1020 3 5 0.11 2.79
11:53 am 11:53 Cloudy with Nearby Thunderstorms 69 20.6 69 20.6 100 100 S 5 7 30.13 1020 4 6 0.12 3.05
12:23 pm 12:23 Cloudy with Nearby Thunderstorms 66 18.9 66 18.9 100 100 S 9 15 30.15 1021 2 3 0.13 3.30
12:30 pm 12:30 Cloudy with Strong Thunderstorms 65 18.3 65 18.3 100 100 VRB 5 7 30.15 1021 1 1 0.37 9.40
12:35 pm 12:35 Cloudy with Strong Thunderstorms 65 18.3 65 18.3 100 100 Calm 30.15 1021 0 0 0.47 11.94
12:43 pm 12:43 Cloudy with Strong Thunderstorms 65 18.3 65 18.3 100 100 Calm 30.15 1021 1 1 0.62 15.75
12:50 pm 12:50 Cloudy with Thunderstorms 64 18 64 18 100 100 Calm 30.15 1021 2 3 0.63 16.00
12:54 pm 12:54 Cloudy with Thunderstorms 65 18.3 65 18.3 100 100 Calm 30.15 1021 5 8 0.01 0.25
1:05 pm 13:05 Cloudy with Thunderstorms 65 18.3 65 18.3 100 100 Calm 30.15 1021 5 8 0.04 1.02
1:15 pm 13:15 Cloudy with Nearby Thunderstorms 66 18.9 66 18.9 100 100 NNE 7 11 30.15 1021 4 6 0.07 1.78
1:23 pm 13:23 Cloudy with Light Rain 66 18.9 66 18.9 100 100 ENE 5 7 30.15 1021 6 10 0.07 1.78
1:53 pm 13:53 Mostly Cloudy 69 20.6 69 20.6 100 100 Calm 30.13 1020 10 16 0.08 2.03
2:53 pm 14:53 Partly Cloudy 72 22.2 68 20 87 87 Calm 30.09 1019 10 16 0.00 0.00
3:53 pm 15:53 Partly Cloudy 71 21.7 69 20.6 94 94 Calm 30.09 1019 10 16 0.00 0.00
4:53 pm 16:53 Cloudy with Light Rain 71 21.7 71 21.7 100 100 Calm 30.09 1019 10 16 0.00 0.03
5:53 pm 17:53 Cloudy 71 21.7 70 21.1 96 96 S 8 13 30.07 1018 10 16 0.00 0.03
6:53 pm 18:53 Sunny 73 22.8 69 20.6 87 87 SSW 6 9 30.06 1018 10 16 0.00 0.00
7:53 pm 19:53 Mostly Sunny 71 21.7 70 21.1 96 96 Calm 30.06 1018 10 16 0.00 0.00
8:53 pm 20:53 Clear 68 20 68 20 100 100 Calm 30.06 1018 10 16 0.00 0.00
9:53 pm 21:53 Partly Cloudy 68 20 68 20 100 100 Calm 30.08 1019 9 14 0.00 0.00
10:53 pm 22:53 Clear 67 19.4 67 19.4 100 100 Calm 30.09 1019 10 16 0.00 0.00
11:53 pm 23:53 Mostly Clear 67 19.4 67 19.4 100 100 Calm 30.10 1019 10 16 0.00 0.00

Powered by AerisWeather